• MPC Preparation (Info)

  • MPEC 2022-R47 : 2022 QV36

    The following Minor Planet Electronic Circular may be linked-to from your own Web pages, but must not otherwise be redistributed electronically.

    A form allowing access to any MPEC is at the bottom of this page.


    Read MPEC 2022-R46 Read MPEC 2022-R48


    M.P.E.C. 2022-R47                             Issued 2022 September 3, 19:41 UT
    
         The Minor Planet Electronic Circulars contain information on unusual
             minor planets and routine data on comets.  They are published
        on behalf of Division F of the International Astronomical Union by the
              Minor Planet Center, Smithsonian Astrophysical Observatory,
                              Cambridge, MA 02138, U.S.A.
    
                 Prepared using the Tamkin Foundation Computer Network
    
                                  MPC@CFA.HARVARD.EDU
                URL https://www.minorplanetcenter.net/    ISSN 1523-6714
    
                                    2022 QV36                                
    
    
    Observations:
         K22Q36V* C2022 08 31.31010020 10 46.750-06 49 36.41         21.23wUER047F52
         K22Q36V  C2022 08 31.32165320 10 47.816-06 50 46.11         21.29wUER047F52
         K22Q36V  C2022 08 31.33322720 10 48.882-06 51 55.69         21.21wUER047F52
         K22Q36V  C2022 08 31.34481620 10 49.950-06 53 05.60         21.12wUER047F52
         K22Q36V  C2022 08 31.43992020 10 58.819-07 02 36.56         20.99GVER047F52
         K22Q36V  C2022 08 31.44072320 10 58.891-07 02 41.20         21.08GVER047F52
         K22Q36V KC2022 09 01.07079620 12 06.00 -08 05 26.1          21.0 VuER047H21
         K22Q36V KC2022 09 01.07814120 12 06.70 -08 06 09.7          20.9 VuER047H21
         K22Q36V KC2022 09 01.08548520 12 07.38 -08 06 53.6          20.9 VuER047H21
         K22Q36V KC2022 09 01.09209620 12 08.05 -08 07 32.7          20.8 VuER047H21
         K22Q36V |C2022 09 02.99089 20 15 31.33 -11 10 12.1          20.8 VuER047807
         K22Q36V |C2022 09 02.99687 20 15 31.95 -11 10 46.0          20.8 VuER047807
         K22Q36V |C2022 09 03.00273 20 15 32.48 -11 11 19.5          20.8 VuER047807
         K22Q36V  C2022 09 03.36691020 16 11.161-11 45 47.40         20.99GVER047F51
         K22Q36V  C2022 09 03.36760820 16 11.248-11 45 51.77         21.02GVER047F51
    
    Observer details:
    807 Cerro Tololo Observatory, La Serena.  Observers T. Linder, R. Holmes, L.
        Horn.  0.61-m f/6.5 Dall-Kirkham Astrograph + CCD.
    F51 Pan-STARRS 1, Haleakala.  Observers J. Bulger, K. Chambers, T. Lowe, A.
        Schultz, I. Smith.  Measurers S. Chastel, J. Fairlamb, M. Huber, Y.
        Ramanjooloo, R. Wainscoat, R. Weryk.  1.8-m Ritchey-Chretien + CCD.
    F52 Pan-STARRS 2, Haleakala.  Observers J. Bulger, T. Lowe, A. Schultz, I.
        Smith, K. Chambers, T. Dukes.  Measurers K. Chambers, S. Chastel, T. de
        Boer, J. Fairlamb, H. Gao, M. Huber, C.-C. Lin, E. Magnier, Y.
        Ramanjooloo, R. Wainscoat, R. Weryk.  1.8-m Ritchey-Chretien + CCD.
    H21 Astronomical Research Observatory, Westfield.  Observer R. Holmes.
        Measurers T. Linder, R. Holmes, L. Horn.  0.81-m f/4.0 astrograph + CCD.
    
    Orbital elements:
    2022 QV36                                                Earth MOID = 0.2874 AU
    Epoch 2022 Aug. 9.0 TT = JDT 2459800.5                  Veres                   
    M   4.96251              (2000.0)            P               Q                  
    n   0.38805004     Peri.  145.99165     +0.54764176     +0.80568151             
    a   1.8615623      Node   154.76942     -0.83578048     +0.53947797             
    e   0.3260331      Incl.   31.97964     -0.03949048     -0.24462384             
    P   2.54           H   21.68          G   0.15           U   9                  
    Residuals in seconds of arc
    220831 F52  0.1+  0.1+    220831 F52  0.3-  0.0     220902 807  0.1+  0.1+
    220831 F52  0.1+  0.0     220901 H21  0.2+  0.2+    220902 807  0.3+  0.1+
    220831 F52  0.0   0.1+    220901 H21  0.1+  0.2+    220903 807  0.6-  0.2-
    220831 F52  0.0   0.1-    220901 H21  0.3-  0.2-    220903 F51  0.0   0.2+
    220831 F52  0.2-  0.1-    220901 H21  0.1+  0.1-    220903 F51  0.2+  0.2-
    
    Ephemeris:
    2022 QV36                a,e,i = 1.86, 0.33, 32                  q = 1.2546
    Date    TT    R. A. (2000) Decl.     Delta      r    Elong.  Phase     V
    2022 08 04    19 39 03.3 +36 27 45   0.3704  1.2565   123.2    42.5    21.7
    ...
    2022 08 19    19 52 45.8 +14 55 56   0.3176  1.2703   139.4    31.2    21.0
    ...
    2022 08 27    20 03 45.5 +00 39 00   0.3195  1.2830   144.1    27.5    21.0
    ...
    2022 09 02    20 13 43.5 -09 35 47   0.3374  1.2948   143.1    27.9    21.1
    2022 09 03    20 15 31.3 -11 11 08   0.3417  1.2969   142.6    28.2    21.2
    2022 09 04    20 17 21.4 -12 43 57   0.3464  1.2991   142.0    28.6    21.2
    ...
    2022 09 10    20 29 04.7 -21 01 55   0.3810  1.3132   137.4    31.3    21.5
    ...
    2022 09 18    20 46 17.1 -29 24 00   0.4420  1.3346   130.4    35.0    22.0
    ...
    2022 10 03    21 21 41.1 -38 17 25   0.5859  1.3816   118.7    39.4    22.8
    
    M. P. C. Staff               (C) Copyright 2022 MPC           M.P.E.C. 2022-R47
    


    Read MPEC 2022-R46 Read MPEC 2022-R48


    MPEC number:

    Enter an MPEC number in one of the following forms:

    • 1997-B01 (the full form)
    • J97B01 (the packed version of the full form)
    • B01 (the abbreviated form)